This demonstration page uses our WeatherBlox Daily Observations layout. Learn more.

Left ArrowRight Arrow

36.19886, -115.1175

Hourly Observations for November 19, 2015

Temp ( °F °C ) Dew Point ( °F °C ) Humidity (%) Winds ( mph kmh ) Pressure ( in mb ) Visibility ( mi km ) Precip ( " mm )
12:53 am 00:53 Clear 47 8.3 28 -2.2 48 48 NW 3 6 30.14 1021 10 16 0.00 0.00
1:53 am 01:53 Clear 47 8.3 27 -2.8 46 46 Calm 30.14 1021 10 16 0.00 0.00
2:53 am 02:53 Clear 46 7.8 27 -2.8 47 47 Calm 30.14 1021 10 16 0.00 0.00
3:53 am 03:53 Clear 45 7.2 27 -2.8 49 49 NW 6 9 30.14 1021 10 16 0.00 0.00
4:53 am 04:53 Clear 45 7.2 28 -2.2 52 52 Calm 30.16 1021 10 16 0.00 0.00
5:53 am 05:53 Clear 43 6.1 27 -2.8 53 53 NNE 5 7 30.18 1022 10 16 0.00 0.00
6:53 am 06:53 Sunny 44 6.7 29 -1.7 55 55 W 3 6 30.19 1023 10 16 0.00 0.00
7:53 am 07:53 Sunny 51 10.6 28 -2.2 41 41 Calm 30.20 1023 10 16 0.00 0.00
8:53 am 08:53 Sunny 55 12.8 28 -2.2 35 35 W 3 6 30.21 1023 10 16 0.00 0.00
9:53 am 09:53 Sunny 60 15.6 29 -1.7 31 31 Calm 30.19 1022 10 16 0.00 0.00
10:53 am 10:53 Sunny 63 17.2 29 -1.7 28 28 Calm 30.16 1022 10 16 0.00 0.00
11:53 am 11:53 Sunny 66 18.9 29 -1.7 25 25 Calm 30.13 1020 10 16 0.00 0.00
12:53 pm 12:53 Sunny 67 19.4 29 -1.7 24 24 SE 3 6 30.10 1019 10 16 0.00 0.00
1:53 pm 13:53 Sunny 68 20 28 -2.2 22 22 S 5 7 30.08 1019 10 16 0.00 0.00
2:53 pm 14:53 Sunny 68 20 28 -2.2 22 22 Calm 30.06 1018 10 16 0.00 0.00
3:53 pm 15:53 Sunny 68 20 28 -2.2 22 22 Calm 30.06 1018 10 16 0.00 0.00
4:53 pm 16:53 Clear 65 18.3 28 -2.2 25 25 ESE 3 6 30.06 1018 10 16 0.00 0.00
5:53 pm 17:53 Clear 62 16.7 29 -1.7 29 29 Calm 30.08 1019 10 16 0.00 0.00
6:53 pm 18:53 Clear 58 14.4 31 -0.6 36 36 WNW 5 7 30.10 1019 10 16 0.00 0.00
7:53 pm 19:53 Clear 56 13.3 32 0 40 40 WNW 6 9 30.10 1019 10 16 0.00 0.00
8:53 pm 20:53 Clear 53 11.7 32 0 45 45 NW 7 11 30.10 1019 10 16 0.00 0.00
9:53 pm 21:53 Clear 52 11.1 32 0 47 47 NNW 6 9 30.09 1019 10 16 0.00 0.00
10:53 pm 22:53 Clear 53 11.7 32 0 45 45 W 5 7 30.09 1019 10 16 0.00 0.00
11:53 pm 23:53 Clear 50 10 31 -0.6 48 48 Calm 30.09 1019 10 16 0.00 0.00

Powered by AerisWeather